SWA2341 KLAX-KMDW

Flight info

Callsign SWA2341
Flight time 3h 14m
Altitude 35000
Route DOTSS2 CLEEE PKE J96 LANCY CIM KK48A SLN CATTS IRK ENDEE8
Aircraft B38M/M-SADE2E3GHIJ4J7P2RWZ/LB1D1

Departure

Time 2026-04-26 13:21
Airport Los Angeles International Airport (KLAX)

Arrival

Time 2026-04-26 16:35
Airport Chicago Midway International Airport (KMDW)
Time Latitude Longitude Altitude Speed Heading
2026-04-26 12:20 33.94783 -118.40171 98 ft 0 kts 142°
2026-04-26 12:30 33.94783 -118.40172 98 ft 0 kts 142°
2026-04-26 13:09 33.94789 -118.40177 98 ft 4 kts 139°
2026-04-26 13:09 33.94805 -118.40202 98 ft 4 kts 117°
2026-04-26 13:10 33.94814 -118.40225 98 ft 4 kts 110°
2026-04-26 13:10 33.94821 -118.40257 98 ft 4 kts 94°
2026-04-26 13:10 33.94819 -118.40288 98 ft 4 kts 77°
2026-04-26 13:10 33.94812 -118.40320 100 ft 4 kts 73°
2026-04-26 13:11 33.94809 -118.40336 98 ft 0 kts 83°
2026-04-26 13:18 33.94813 -118.40321 98 ft 6 kts 65°
2026-04-26 13:18 33.94861 -118.40293 102 ft 9 kts 359°
2026-04-26 13:18 33.94905 -118.40190 101 ft 11 kts 82°
2026-04-26 13:19 33.94919 -118.40061 102 ft 19 kts 83°
2026-04-26 13:19 33.94934 -118.39952 101 ft 12 kts 65°
2026-04-26 13:19 33.94981 -118.39913 106 ft 5 kts
2026-04-26 13:19 33.95000 -118.39914 109 ft 4 kts 352°
2026-04-26 13:20 33.95037 -118.39932 108 ft 7 kts 304°
2026-04-26 13:20 33.95036 -118.40015 112 ft 16 kts 263°
2026-04-26 13:20 33.94993 -118.40443 112 ft 87 kts 263°
2026-04-26 13:20 33.94895 -118.41420 110 ft 147 kts 263°
2026-04-26 13:21 33.94756 -118.42811 397 ft 173 kts 262°
2026-04-26 13:21 33.94639 -118.43744 1035 ft 168 kts 262°
2026-04-26 13:21 33.94442 -118.45693 1948 ft 192 kts 264°
2026-04-26 13:21 33.94350 -118.47369 2454 ft 207 kts 267°
2026-04-26 13:22 33.94285 -118.49179 2674 ft 226 kts 267°
2026-04-26 13:22 33.94185 -118.51143 2903 ft 244 kts 264°
2026-04-26 13:22 33.94025 -118.53239 3268 ft 257 kts 264°
2026-04-26 13:22 33.93863 -118.55365 4337 ft 255 kts 264°
2026-04-26 13:23 33.93701 -118.57511 5275 ft 258 kts 264°
2026-04-26 13:23 33.93536 -118.59674 6248 ft 261 kts 263°
2026-04-26 13:23 33.92979 -118.61741 7169 ft 263 kts 238°
2026-04-26 13:23 33.91676 -118.63288 8025 ft 270 kts 212°
2026-04-26 13:24 33.89883 -118.64009 8893 ft 277 kts 188°
2026-04-26 13:24 33.87926 -118.63964 9679 ft 285 kts 180°
2026-04-26 13:24 33.85931 -118.63843 10418 ft 292 kts 181°
2026-04-26 13:24 33.83868 -118.63367 10807 ft 318 kts 161°
2026-04-26 13:25 33.81897 -118.61962 11156 ft 341 kts 149°
2026-04-26 13:25 33.79884 -118.60329 11600 ft 355 kts 150°
2026-04-26 13:25 33.77816 -118.58652 12277 ft 360 kts 150°
2026-04-26 13:25 33.75733 -118.56961 13017 ft 363 kts 150°
2026-04-26 13:26 33.73619 -118.55245 13677 ft 369 kts 150°
2026-04-26 13:26 33.71484 -118.53482 14368 ft 376 kts 147°
2026-04-26 13:26 33.69691 -118.51133 15052 ft 390 kts 126°
2026-04-26 13:26 33.68555 -118.48130 15708 ft 400 kts 112°
2026-04-26 13:27 33.67619 -118.44945 16289 ft 407 kts 113°
2026-04-26 13:27 33.66659 -118.41722 16805 ft 413 kts 113°
2026-04-26 13:27 33.65693 -118.38472 16962 ft 415 kts 113°
2026-04-26 13:27 33.64793 -118.35174 17002 ft 418 kts 104°
2026-04-26 13:28 33.64538 -118.31693 17028 ft 420 kts 92°
2026-04-26 13:28 33.64500 -118.28182 17025 ft 421 kts 91°
2026-04-26 13:28 33.64479 -118.24673 17022 ft 421 kts 91°
2026-04-26 13:28 33.64472 -118.21186 17027 ft 423 kts 91°
2026-04-26 13:29 33.64469 -118.17659 17554 ft 423 kts 91°
2026-04-26 13:29 33.64468 -118.15265 17948 ft 426 kts 91°
2026-04-26 13:29 33.64466 -118.10507 18625 ft 433 kts 91°
2026-04-26 13:29 33.64463 -118.06869 19178 ft 437 kts 91°
2026-04-26 13:30 33.64459 -118.03211 19715 ft 441 kts 91°
2026-04-26 13:30 33.64455 -117.99510 20255 ft 445 kts 91°
2026-04-26 13:30 33.64449 -117.95780 20763 ft 449 kts 91°
2026-04-26 13:30 33.64442 -117.92025 21266 ft 452 kts 91°
2026-04-26 13:31 33.64434 -117.88231 21744 ft 456 kts 91°
2026-04-26 13:31 33.64424 -117.84402 22211 ft 460 kts 91°
2026-04-26 13:31 33.64440 -117.80547 22700 ft 464 kts 87°
2026-04-26 13:31 33.64982 -117.76728 23156 ft 467 kts 76°
2026-04-26 13:32 33.65703 -117.72913 23577 ft 471 kts 77°
2026-04-26 13:32 33.66433 -117.69066 24019 ft 474 kts 77°
2026-04-26 13:32 33.67177 -117.65187 24441 ft 478 kts 77°
2026-04-26 13:32 33.67926 -117.61285 24830 ft 482 kts 77°
2026-04-26 13:33 33.68682 -117.57340 25192 ft 486 kts 77°
2026-04-26 13:33 33.69434 -117.53408 25579 ft 490 kts 77°
2026-04-26 13:33 33.70198 -117.49409 25950 ft 493 kts 77°
2026-04-26 13:33 33.70968 -117.45373 26198 ft 499 kts 78°
2026-04-26 13:34 33.71742 -117.41302 26564 ft 500 kts 78°
2026-04-26 13:34 33.72517 -117.37220 26919 ft 503 kts 78°
2026-04-26 13:34 33.73299 -117.33092 27172 ft 509 kts 78°
2026-04-26 13:34 33.73819 -117.30342 27407 ft 510 kts 78°
2026-04-26 13:35 33.74848 -117.24740 27821 ft 514 kts 83°
2026-04-26 13:35 33.75029 -117.20465 28071 ft 513 kts 96°
2026-04-26 13:35 33.74962 -117.16167 28367 ft 516 kts 95°
2026-04-26 13:35 33.74900 -117.11841 28672 ft 519 kts 95°
2026-04-26 13:36 33.74818 -117.07494 28977 ft 522 kts 96°
2026-04-26 13:36 33.74729 -117.03174 29233 ft 525 kts 96°
2026-04-26 13:36 33.74637 -116.98810 29517 ft 528 kts 96°
2026-04-26 13:36 33.74540 -116.94380 29760 ft 532 kts 96°
2026-04-26 13:37 33.74442 -116.89935 30065 ft 533 kts 96°
2026-04-26 13:37 33.74343 -116.85467 30260 ft 538 kts 96°
2026-04-26 13:37 33.74241 -116.80948 30533 ft 540 kts 96°
2026-04-26 13:37 33.74136 -116.76427 30828 ft 543 kts 96°
2026-04-26 13:38 33.74030 -116.71886 31078 ft 546 kts 97°
2026-04-26 13:38 33.73920 -116.67304 31364 ft 549 kts 97°
2026-04-26 13:38 33.73810 -116.62710 31621 ft 552 kts 97°
2026-04-26 13:38 33.73697 -116.58087 31865 ft 554 kts 97°
2026-04-26 13:39 33.73580 -116.53446 32179 ft 555 kts 97°
2026-04-26 13:39 33.73463 -116.48801 32424 ft 558 kts 97°
2026-04-26 13:39 33.73346 -116.44197 32650 ft 559 kts 97°
2026-04-26 13:39 33.73224 -116.39520 32885 ft 559 kts 97°
2026-04-26 13:40 33.73100 -116.34829 33268 ft 558 kts 97°
2026-04-26 13:40 33.72976 -116.30169 33550 ft 559 kts 97°
2026-04-26 13:40 33.72849 -116.25503 33792 ft 560 kts 97°
2026-04-26 13:40 33.72720 -116.20822 34074 ft 560 kts 97°
2026-04-26 13:41 33.72590 -116.16144 34362 ft 560 kts 97°
2026-04-26 13:41 33.72460 -116.11470 34677 ft 560 kts 96°
2026-04-26 13:41 33.72709 -116.06832 34821 ft 567 kts 81°
2026-04-26 13:42 33.75033 -115.97760 34852 ft 569 kts 73°
2026-04-26 13:42 33.77512 -115.88727 34867 ft 568 kts 72°
2026-04-26 13:43 33.80006 -115.79709 34899 ft 569 kts 72°
2026-04-26 13:43 33.82482 -115.70734 34895 ft 568 kts 72°
2026-04-26 13:44 33.84963 -115.61708 34887 ft 568 kts 72°
2026-04-26 13:44 33.87441 -115.52666 34884 ft 569 kts 72°
2026-04-26 13:45 33.89914 -115.43612 34867 ft 569 kts 73°
2026-04-26 13:45 33.92380 -115.34551 34885 ft 569 kts 73°
2026-04-26 13:46 33.94842 -115.25482 34873 ft 570 kts 73°
2026-04-26 13:46 33.97283 -115.16454 34872 ft 570 kts 73°
2026-04-26 13:47 33.99733 -115.07367 34853 ft 570 kts 73°
2026-04-26 13:47 34.02172 -114.98289 34887 ft 566 kts 73°
2026-04-26 13:48 34.04589 -114.89266 34872 ft 563 kts 73°
2026-04-26 13:48 34.06998 -114.80242 34862 ft 565 kts 73°
2026-04-26 13:49 34.09389 -114.71263 34860 ft 566 kts 74°
2026-04-26 13:49 34.11928 -114.62246 34862 ft 567 kts 72°
2026-04-26 13:50 34.14042 -114.54749 34855 ft 568 kts 73°
2026-04-26 13:50 34.16585 -114.45701 34851 ft 569 kts 73°
2026-04-26 13:51 34.19126 -114.36630 34851 ft 570 kts 73°
2026-04-26 13:51 34.21664 -114.27540 34849 ft 571 kts 73°
2026-04-26 13:52 34.24198 -114.18437 34852 ft 572 kts 73°
2026-04-26 13:52 34.26745 -114.09314 34860 ft 573 kts 72°
2026-04-26 13:53 34.29355 -114.00218 34864 ft 572 kts 72°
2026-04-26 13:53 34.31949 -113.91117 34849 ft 572 kts 72°
2026-04-26 13:54 34.34537 -113.82009 34858 ft 573 kts 72°
2026-04-26 13:54 34.37117 -113.72904 34865 ft 572 kts 73°
2026-04-26 13:55 34.40538 -113.60784 34845 ft 570 kts 72°
2026-04-26 13:56 34.44778 -113.45681 34866 ft 568 kts 73°
2026-04-26 13:56 34.47310 -113.36623 34876 ft 567 kts 73°
2026-04-26 13:57 34.49832 -113.27573 34865 ft 566 kts 73°
2026-04-26 13:57 34.52345 -113.18530 34870 ft 565 kts 73°
2026-04-26 13:58 34.54846 -113.09496 34879 ft 565 kts 73°
2026-04-26 13:58 34.57349 -113.00426 34897 ft 566 kts 73°
2026-04-26 13:59 34.59822 -112.91437 34890 ft 565 kts 73°
2026-04-26 13:59 34.62311 -112.82360 34889 ft 565 kts 73°
2026-04-26 14:00 34.67262 -112.64209 34890 ft 566 kts 73°
2026-04-26 14:01 34.69732 -112.55114 34893 ft 566 kts 73°
2026-04-26 14:01 34.72190 -112.46027 34897 ft 566 kts 73°
2026-04-26 14:02 34.74633 -112.36965 34898 ft 567 kts 73°
2026-04-26 14:02 34.77085 -112.27845 34890 ft 567 kts 73°
2026-04-26 14:03 34.79525 -112.18733 34880 ft 567 kts 73°
2026-04-26 14:03 34.81962 -112.09606 34871 ft 566 kts 73°
2026-04-26 14:04 34.84389 -112.00486 34873 ft 565 kts 73°
2026-04-26 14:04 34.86805 -111.91371 34876 ft 565 kts 73°
2026-04-26 14:05 34.89212 -111.82262 34885 ft 565 kts 73°
2026-04-26 14:05 34.91613 -111.73145 34865 ft 564 kts 73°
2026-04-26 14:06 34.93987 -111.64100 34888 ft 564 kts 73°
2026-04-26 14:06 34.96368 -111.54995 34902 ft 563 kts 73°
2026-04-26 14:07 34.98741 -111.45891 34905 ft 562 kts 73°
2026-04-26 14:07 35.01103 -111.36797 34907 ft 562 kts 73°
2026-04-26 14:08 35.03456 -111.27708 34910 ft 561 kts 74°
2026-04-26 14:08 35.05788 -111.18671 34898 ft 561 kts 74°
2026-04-26 14:09 35.08142 -111.09515 34898 ft 561 kts 74°
2026-04-26 14:09 35.10457 -111.00477 34886 ft 561 kts 74°
2026-04-26 14:10 35.12781 -110.91374 34888 ft 562 kts 74°
2026-04-26 14:10 35.15097 -110.82268 34880 ft 561 kts 74°
2026-04-26 14:11 35.18562 -110.68586 34878 ft 562 kts 74°
2026-04-26 14:11 35.20865 -110.59454 34880 ft 561 kts 74°
2026-04-26 14:12 35.23159 -110.50325 34888 ft 561 kts 74°
2026-04-26 14:12 35.25434 -110.41240 34887 ft 561 kts 74°
2026-04-26 14:13 35.28847 -110.27548 34888 ft 560 kts 75°
2026-04-26 14:14 35.31115 -110.18407 34899 ft 561 kts 75°
2026-04-26 14:14 35.33376 -110.09262 34897 ft 561 kts 75°
2026-04-26 14:15 35.35629 -110.00118 34898 ft 561 kts 75°
2026-04-26 14:15 35.37861 -109.91025 34897 ft 559 kts 75°
2026-04-26 14:16 35.40099 -109.81876 34914 ft 560 kts 75°
2026-04-26 14:16 35.42330 -109.72721 34925 ft 560 kts 75°
2026-04-26 14:17 35.44550 -109.63580 34933 ft 560 kts 75°
2026-04-26 14:17 35.46755 -109.54466 34936 ft 559 kts 75°
2026-04-26 14:18 35.48962 -109.45312 34934 ft 558 kts 75°
2026-04-26 14:18 35.51156 -109.36174 34932 ft 558 kts 75°
2026-04-26 14:19 35.53350 -109.27005 34940 ft 559 kts 75°
2026-04-26 14:19 35.55532 -109.17851 34933 ft 558 kts 75°
2026-04-26 14:20 35.57695 -109.08744 34929 ft 558 kts 75°
2026-04-26 14:20 35.59861 -108.99591 34934 ft 557 kts 75°
2026-04-26 14:21 35.62017 -108.90444 34939 ft 557 kts 75°
2026-04-26 14:21 35.64165 -108.81298 34941 ft 557 kts 76°
2026-04-26 14:22 35.66300 -108.72176 34946 ft 557 kts 76°
2026-04-26 14:22 35.68434 -108.63020 34935 ft 556 kts 76°
2026-04-26 14:23 35.70559 -108.53871 34942 ft 556 kts 76°
2026-04-26 14:23 35.72678 -108.44706 34944 ft 556 kts 76°
2026-04-26 14:24 35.74789 -108.35548 34941 ft 556 kts 76°
2026-04-26 14:24 35.76894 -108.26378 34944 ft 557 kts 76°
2026-04-26 14:25 35.78992 -108.17204 34946 ft 556 kts 76°
2026-04-26 14:25 35.81083 -108.08024 34942 ft 556 kts 76°
2026-04-26 14:26 35.83168 -107.98842 34945 ft 556 kts 77°
2026-04-26 14:26 35.85245 -107.89650 34941 ft 556 kts 77°
2026-04-26 14:27 35.87301 -107.80520 34953 ft 556 kts 77°
2026-04-26 14:27 35.89360 -107.71339 34948 ft 555 kts 77°
2026-04-26 14:28 35.91415 -107.62144 34948 ft 555 kts 77°
2026-04-26 14:28 35.93464 -107.52935 34952 ft 555 kts 77°
2026-04-26 14:29 35.95491 -107.43794 34956 ft 555 kts 77°
2026-04-26 14:29 35.97517 -107.34615 34952 ft 554 kts 77°
2026-04-26 14:30 35.99533 -107.25450 34953 ft 553 kts 77°
2026-04-26 14:30 36.01544 -107.16271 34952 ft 551 kts 77°
2026-04-26 14:31 36.03534 -107.07148 34969 ft 550 kts 77°
2026-04-26 14:31 36.05515 -106.98029 34975 ft 549 kts 77°
2026-04-26 14:32 36.07487 -106.88918 35001 ft 548 kts 77°
2026-04-26 14:32 36.09450 -106.79816 34977 ft 547 kts 77°
2026-04-26 14:33 36.11389 -106.70783 34975 ft 546 kts 77°
2026-04-26 14:33 36.13332 -106.61700 34969 ft 546 kts 77°
2026-04-26 14:34 36.15269 -106.52603 34960 ft 545 kts 77°
2026-04-26 14:34 36.17195 -106.43526 34956 ft 545 kts 77°
2026-04-26 14:35 36.19104 -106.34492 34969 ft 546 kts 77°
2026-04-26 14:35 36.21016 -106.25405 34971 ft 545 kts 77°
2026-04-26 14:36 36.22926 -106.16290 34972 ft 545 kts 77°
2026-04-26 14:36 36.24823 -106.07202 34971 ft 546 kts 77°
2026-04-26 14:37 36.26719 -105.98076 34983 ft 546 kts 77°
2026-04-26 14:37 36.28286 -105.90510 34983 ft 545 kts 78°
2026-04-26 14:38 36.30471 -105.79918 34976 ft 545 kts 78°
2026-04-26 14:38 36.32040 -105.72289 34994 ft 544 kts 78°
2026-04-26 14:39 36.33893 -105.63242 34997 ft 544 kts 77°
2026-04-26 14:39 36.35747 -105.54151 35013 ft 543 kts 77°
2026-04-26 14:40 36.37597 -105.45054 35013 ft 542 kts 77°
2026-04-26 14:40 36.39435 -105.35975 35008 ft 541 kts 77°
2026-04-26 14:41 36.41266 -105.26887 35018 ft 541 kts 77°
2026-04-26 14:41 36.43082 -105.17838 35020 ft 541 kts 77°
2026-04-26 14:42 36.44895 -105.08771 35010 ft 540 kts 77°
2026-04-26 14:42 36.46685 -104.99779 35010 ft 540 kts 77°
2026-04-26 14:43 36.48481 -104.90723 34989 ft 539 kts 77°
2026-04-26 14:43 36.50932 -104.81935 34978 ft 539 kts 67°
2026-04-26 14:44 36.53802 -104.73319 34961 ft 539 kts 67°
2026-04-26 14:44 36.56687 -104.64695 34949 ft 539 kts 67°
2026-04-26 14:45 36.59539 -104.56144 34935 ft 538 kts 67°
2026-04-26 14:45 36.62403 -104.47535 34936 ft 538 kts 67°
2026-04-26 14:46 36.65265 -104.38904 34925 ft 539 kts 67°
2026-04-26 14:46 36.68118 -104.30275 34924 ft 538 kts 67°
2026-04-26 14:47 36.70969 -104.21627 34924 ft 539 kts 67°
2026-04-26 14:47 36.73792 -104.13044 34929 ft 538 kts 67°
2026-04-26 14:48 36.76625 -104.04400 34927 ft 538 kts 67°
2026-04-26 14:48 36.79449 -103.95760 34923 ft 537 kts 66°
2026-04-26 14:49 36.82257 -103.87142 34929 ft 535 kts 67°
2026-04-26 14:49 36.85054 -103.78533 34920 ft 535 kts 67°
2026-04-26 14:50 36.87845 -103.69915 34921 ft 535 kts 67°
2026-04-26 14:50 36.90629 -103.61295 34921 ft 534 kts 67°
2026-04-26 14:51 36.93383 -103.52745 34927 ft 534 kts 67°
2026-04-26 14:51 36.96148 -103.44135 34927 ft 534 kts 67°
2026-04-26 14:52 36.98903 -103.35527 34929 ft 533 kts 67°
2026-04-26 14:52 37.01652 -103.26915 34926 ft 533 kts 67°
2026-04-26 14:53 37.04393 -103.18303 34936 ft 532 kts 67°
2026-04-26 14:53 37.07125 -103.09689 34925 ft 532 kts 67°
2026-04-26 14:54 37.09848 -103.01083 34926 ft 531 kts 67°
2026-04-26 14:54 37.12562 -102.92476 34922 ft 530 kts 67°
2026-04-26 14:55 37.15256 -102.83908 34925 ft 530 kts 67°
2026-04-26 14:55 37.17956 -102.75295 34919 ft 530 kts 67°
2026-04-26 14:56 37.20643 -102.66697 34915 ft 529 kts 67°
2026-04-26 14:56 37.23321 -102.58103 34915 ft 529 kts 67°
2026-04-26 14:57 37.25991 -102.49505 34916 ft 528 kts 67°
2026-04-26 14:57 37.28651 -102.40919 34916 ft 528 kts 68°
2026-04-26 14:58 37.31303 -102.32328 34926 ft 527 kts 68°
2026-04-26 14:58 37.33945 -102.23746 34926 ft 526 kts 68°
2026-04-26 14:59 37.36563 -102.15215 34926 ft 526 kts 68°
2026-04-26 14:59 37.39188 -102.06634 34924 ft 525 kts 68°
2026-04-26 15:00 37.41807 -101.98049 34930 ft 525 kts 68°
2026-04-26 15:00 37.44417 -101.89465 34924 ft 524 kts 68°
2026-04-26 15:01 37.47017 -101.80891 34925 ft 524 kts 68°
2026-04-26 15:01 37.49610 -101.72309 34924 ft 524 kts 68°
2026-04-26 15:02 37.52191 -101.63741 34926 ft 524 kts 68°
2026-04-26 15:02 37.54752 -101.55214 34924 ft 523 kts 68°
2026-04-26 15:03 37.57325 -101.46622 34933 ft 524 kts 68°
2026-04-26 15:03 37.59890 -101.38027 34934 ft 523 kts 68°
2026-04-26 15:04 37.62453 -101.29417 34937 ft 524 kts 68°
2026-04-26 15:04 37.65005 -101.20811 34933 ft 523 kts 68°
2026-04-26 15:05 37.67553 -101.12192 34943 ft 523 kts 68°
2026-04-26 15:05 37.70089 -101.03590 34940 ft 523 kts 68°
2026-04-26 15:06 37.72602 -100.95038 34941 ft 523 kts 68°
2026-04-26 15:06 37.75127 -100.86418 34933 ft 522 kts 68°
2026-04-26 15:07 37.78902 -100.73479 34925 ft 523 kts 68°
2026-04-26 15:07 37.81408 -100.64854 34916 ft 522 kts 69°
2026-04-26 15:08 37.83893 -100.56277 34912 ft 522 kts 69°
2026-04-26 15:08 37.86387 -100.47641 34919 ft 522 kts 69°
2026-04-26 15:09 37.88878 -100.38997 34914 ft 521 kts 69°
2026-04-26 15:09 37.91355 -100.30372 34906 ft 521 kts 69°
2026-04-26 15:10 37.93411 -100.23192 34907 ft 520 kts 69°
2026-04-26 15:10 37.96273 -100.13167 34907 ft 520 kts 69°
2026-04-26 15:11 37.98730 -100.04532 34906 ft 520 kts 69°
2026-04-26 15:11 38.01588 -99.96121 34912 ft 518 kts 61°
2026-04-26 15:12 38.04858 -99.87958 34896 ft 519 kts 61°
2026-04-26 15:12 38.08133 -99.79811 34899 ft 519 kts 61°
2026-04-26 15:13 38.11412 -99.71631 34895 ft 519 kts 61°
2026-04-26 15:13 38.14686 -99.63446 34894 ft 521 kts 61°
2026-04-26 15:14 38.17968 -99.55219 34896 ft 522 kts 61°
2026-04-26 15:14 38.21242 -99.46989 34888 ft 521 kts 61°
2026-04-26 15:15 38.24485 -99.38816 34888 ft 520 kts 61°
2026-04-26 15:15 38.27738 -99.30595 34890 ft 520 kts 61°
2026-04-26 15:16 38.30986 -99.22365 34887 ft 519 kts 61°
2026-04-26 15:16 38.34221 -99.14147 34888 ft 519 kts 62°
2026-04-26 15:17 38.36906 -99.07308 34887 ft 518 kts 62°
2026-04-26 15:17 38.40672 -98.97693 34886 ft 517 kts 62°
2026-04-26 15:18 38.43862 -98.89524 34888 ft 517 kts 61°
2026-04-26 15:18 38.47061 -98.81309 34887 ft 517 kts 62°
2026-04-26 15:19 38.50253 -98.73090 34888 ft 516 kts 61°
2026-04-26 15:19 38.53438 -98.64868 34888 ft 516 kts 62°
2026-04-26 15:20 38.56617 -98.56641 34887 ft 515 kts 62°
2026-04-26 15:20 38.59765 -98.48467 34888 ft 515 kts 62°
2026-04-26 15:21 38.62926 -98.40241 34889 ft 515 kts 62°
2026-04-26 15:21 38.66079 -98.32012 34887 ft 515 kts 62°
2026-04-26 15:22 38.69231 -98.23765 34896 ft 515 kts 62°
2026-04-26 15:22 38.72375 -98.15516 34899 ft 515 kts 62°
2026-04-26 15:23 38.75511 -98.07266 34897 ft 514 kts 62°
2026-04-26 15:23 38.78638 -97.99015 34892 ft 515 kts 62°
2026-04-26 15:24 38.81732 -97.90832 34886 ft 512 kts 62°
2026-04-26 15:24 38.84835 -97.82602 34889 ft 513 kts 62°
2026-04-26 15:25 38.87433 -97.75698 34883 ft 513 kts 62°
2026-04-26 15:25 38.91033 -97.66109 34879 ft 513 kts 62°
2026-04-26 15:26 38.93689 -97.57620 34878 ft 513 kts 70°
2026-04-26 15:26 38.95616 -97.50407 34877 ft 514 kts 70°
2026-04-26 15:27 38.97910 -97.41710 34879 ft 513 kts 70°
2026-04-26 15:27 39.00196 -97.33010 34879 ft 513 kts 70°
2026-04-26 15:28 39.02474 -97.24310 34881 ft 512 kts 70°
2026-04-26 15:28 39.04741 -97.15619 34877 ft 513 kts 70°
2026-04-26 15:29 39.07002 -97.06920 34877 ft 512 kts 71°
2026-04-26 15:30 39.11502 -96.89521 34879 ft 511 kts 71°
2026-04-26 15:30 39.13740 -96.80819 34877 ft 511 kts 71°
2026-04-26 15:31 39.17068 -96.67826 34888 ft 511 kts 71°
2026-04-26 15:32 39.20022 -96.56234 34889 ft 511 kts 71°
2026-04-26 15:32 39.22606 -96.46052 34891 ft 510 kts 71°
2026-04-26 15:33 39.24793 -96.37398 34889 ft 510 kts 71°
2026-04-26 15:33 39.26990 -96.28674 34899 ft 510 kts 71°
2026-04-26 15:34 39.29171 -96.19991 34898 ft 509 kts 71°
2026-04-26 15:34 39.31356 -96.11283 34895 ft 509 kts 71°
2026-04-26 15:35 39.33542 -96.02573 34908 ft 509 kts 71°
2026-04-26 15:35 39.35711 -95.93895 34904 ft 508 kts 71°
2026-04-26 15:36 39.37881 -95.85179 34908 ft 509 kts 71°
2026-04-26 15:36 39.40046 -95.76456 34907 ft 509 kts 71°
2026-04-26 15:37 39.42199 -95.67748 34915 ft 509 kts 71°
2026-04-26 15:37 39.44338 -95.59065 34916 ft 509 kts 71°
2026-04-26 15:38 39.46488 -95.50306 34919 ft 509 kts 71°
2026-04-26 15:38 39.48610 -95.41629 34916 ft 507 kts 71°
2026-04-26 15:39 39.50737 -95.32898 34917 ft 508 kts 71°
2026-04-26 15:39 39.52500 -95.25637 34920 ft 508 kts 72°
2026-04-26 15:40 39.54956 -95.15486 34925 ft 508 kts 72°
2026-04-26 15:40 39.57069 -95.06718 34925 ft 507 kts 72°
2026-04-26 15:41 39.59171 -94.97966 34927 ft 508 kts 72°
2026-04-26 15:41 39.61253 -94.89259 34930 ft 507 kts 72°
2026-04-26 15:42 39.63342 -94.80493 34933 ft 507 kts 72°
2026-04-26 15:42 39.65416 -94.71758 34935 ft 506 kts 72°
2026-04-26 15:43 39.67473 -94.63063 34943 ft 506 kts 72°
2026-04-26 15:44 39.70550 -94.49987 34954 ft 505 kts 72°
2026-04-26 15:44 39.73614 -94.36896 34971 ft 504 kts 72°
2026-04-26 15:45 39.76663 -94.23800 34981 ft 505 kts 72°
2026-04-26 15:46 39.79691 -94.10713 34980 ft 503 kts 72°
2026-04-26 15:46 39.81361 -94.03464 34980 ft 503 kts 72°
2026-04-26 15:47 39.84706 -93.88875 34971 ft 503 kts 72°
2026-04-26 15:48 39.86683 -93.80207 34971 ft 503 kts 72°
2026-04-26 15:48 39.88670 -93.71462 34970 ft 503 kts 72°
2026-04-26 15:49 39.90650 -93.62712 34970 ft 503 kts 72°
2026-04-26 15:49 39.92625 -93.53955 34972 ft 503 kts 72°
2026-04-26 15:50 39.94595 -93.45182 34968 ft 503 kts 72°
2026-04-26 15:50 39.96555 -93.36418 34971 ft 503 kts 72°
2026-04-26 15:51 39.98494 -93.27722 34980 ft 503 kts 72°
2026-04-26 15:51 40.00438 -93.18962 34982 ft 502 kts 72°
2026-04-26 15:52 40.02370 -93.10221 34988 ft 501 kts 72°
2026-04-26 15:52 40.04291 -93.01492 34993 ft 500 kts 72°
2026-04-26 15:53 40.06208 -92.92757 35005 ft 500 kts 72°
2026-04-26 15:53 40.08119 -92.84019 35008 ft 500 kts 72°
2026-04-26 15:54 40.10021 -92.75288 35006 ft 498 kts 72°
2026-04-26 15:54 40.11899 -92.66635 35017 ft 498 kts 72°
2026-04-26 15:55 40.13743 -92.57900 35016 ft 498 kts 73°
2026-04-26 15:55 40.15483 -92.49135 35010 ft 498 kts 73°
2026-04-26 15:56 40.17232 -92.40375 35017 ft 497 kts 73°
2026-04-26 15:56 40.18972 -92.31629 35015 ft 497 kts 73°
2026-04-26 15:57 40.20706 -92.22873 35015 ft 497 kts 73°
2026-04-26 15:57 40.22423 -92.14171 35016 ft 497 kts 73°
2026-04-26 15:58 40.24144 -92.05408 35019 ft 497 kts 73°
2026-04-26 15:58 40.25855 -91.96660 35020 ft 497 kts 73°
2026-04-26 15:59 40.27563 -91.87882 35024 ft 496 kts 73°
2026-04-26 15:59 40.29263 -91.79109 35026 ft 497 kts 73°
2026-04-26 16:00 40.30943 -91.70404 35026 ft 496 kts 73°
2026-04-26 16:00 40.32630 -91.61625 35033 ft 496 kts 73°
2026-04-26 16:01 40.34310 -91.52843 35037 ft 496 kts 73°
2026-04-26 16:01 40.36006 -91.44090 35032 ft 494 kts 70°
2026-04-26 16:02 40.38544 -91.35751 35036 ft 492 kts 65°
2026-04-26 16:02 40.41131 -91.27473 34361 ft 488 kts 65°
2026-04-26 16:02 40.41988 -91.24731 33755 ft 491 kts 65°
2026-04-26 16:03 40.43713 -91.19201 32707 ft 493 kts 65°
2026-04-26 16:03 40.45021 -91.15002 32170 ft 488 kts 65°
2026-04-26 16:03 40.46281 -91.10952 31632 ft 483 kts 65°
2026-04-26 16:03 40.47547 -91.06873 31099 ft 479 kts 65°
2026-04-26 16:04 40.48781 -91.02848 30900 ft 472 kts 65°
2026-04-26 16:04 40.51236 -90.94833 30750 ft 472 kts 65°
2026-04-26 16:04 40.52459 -90.90832 30638 ft 471 kts 65°
2026-04-26 16:05 40.53661 -90.86890 30533 ft 470 kts 65°
2026-04-26 16:05 40.54876 -90.82903 30429 ft 469 kts 65°
2026-04-26 16:05 40.56087 -90.78923 30331 ft 469 kts 65°
2026-04-26 16:05 40.57296 -90.74942 30223 ft 468 kts 65°
2026-04-26 16:06 40.58502 -90.70969 30116 ft 467 kts 65°
2026-04-26 16:06 40.59702 -90.67007 30012 ft 466 kts 65°
2026-04-26 16:06 40.60902 -90.63040 29909 ft 466 kts 65°
2026-04-26 16:06 40.62097 -90.59082 29804 ft 465 kts 65°
2026-04-26 16:07 40.63289 -90.55129 29697 ft 465 kts 65°
2026-04-26 16:07 40.64480 -90.51174 29590 ft 464 kts 65°
2026-04-26 16:07 40.65664 -90.47234 29486 ft 462 kts 65°
2026-04-26 16:07 40.66846 -90.43297 29379 ft 462 kts 65°
2026-04-26 16:08 40.68024 -90.39368 29272 ft 461 kts 66°
2026-04-26 16:08 40.70359 -90.31562 28975 ft 459 kts 66°
2026-04-26 16:08 40.71523 -90.27651 28391 ft 457 kts 66°
2026-04-26 16:09 40.72677 -90.23767 27882 ft 453 kts 66°
2026-04-26 16:09 40.73825 -90.19899 27335 ft 451 kts 66°
2026-04-26 16:09 40.74963 -90.16062 26788 ft 449 kts 66°
2026-04-26 16:09 40.76098 -90.12231 26237 ft 446 kts 66°
2026-04-26 16:10 40.77222 -90.08428 25693 ft 444 kts 66°
2026-04-26 16:10 40.78344 -90.04628 25150 ft 442 kts 67°
2026-04-26 16:10 40.79451 -90.00873 24612 ft 440 kts 67°
2026-04-26 16:10 40.80560 -89.97105 24073 ft 437 kts 67°
2026-04-26 16:11 40.81655 -89.93378 23541 ft 435 kts 67°
2026-04-26 16:11 40.82747 -89.89659 23009 ft 432 kts 68°
2026-04-26 16:11 40.83825 -89.85981 22483 ft 429 kts 68°
2026-04-26 16:11 40.84901 -89.82305 21963 ft 427 kts 68°
2026-04-26 16:12 40.85957 -89.78694 21447 ft 424 kts 68°
2026-04-26 16:12 40.87069 -89.75102 20933 ft 420 kts 62°
2026-04-26 16:12 40.89980 -89.68510 20103 ft 410 kts 59°
2026-04-26 16:13 40.91412 -89.65268 19694 ft 406 kts 59°
2026-04-26 16:13 40.92832 -89.62049 19276 ft 402 kts 59°
2026-04-26 16:13 40.94233 -89.58869 18866 ft 399 kts 59°
2026-04-26 16:13 40.95625 -89.55707 18467 ft 395 kts 59°
2026-04-26 16:14 40.96533 -89.53641 18192 ft 393 kts 59°
2026-04-26 16:14 40.97902 -89.50529 17796 ft 389 kts 60°
2026-04-26 16:14 41.01049 -89.43353 16702 ft 386 kts 60°
2026-04-26 16:15 41.02387 -89.40299 16304 ft 382 kts 60°
2026-04-26 16:15 41.03714 -89.37267 15901 ft 378 kts 60°
2026-04-26 16:15 41.04600 -89.35238 15651 ft 376 kts 60°
2026-04-26 16:16 41.07190 -89.29305 14887 ft 368 kts 60°
2026-04-26 16:16 41.08448 -89.26422 14527 ft 364 kts 60°
2026-04-26 16:16 41.09706 -89.23531 14151 ft 360 kts 61°
2026-04-26 16:16 41.10953 -89.20666 13781 ft 357 kts 61°
2026-04-26 16:17 41.12188 -89.17824 13423 ft 353 kts 61°
2026-04-26 16:17 41.13410 -89.15010 13062 ft 349 kts 61°
2026-04-26 16:17 41.14618 -89.12227 12689 ft 346 kts 61°
2026-04-26 16:17 41.15821 -89.09452 12143 ft 348 kts 61°
2026-04-26 16:18 41.17028 -89.06662 11641 ft 349 kts 61°
2026-04-26 16:18 41.19417 -89.01141 10664 ft 335 kts 62°
2026-04-26 16:19 41.21595 -88.95940 9910 ft 307 kts 67°
2026-04-26 16:19 41.22451 -88.93469 9748 ft 289 kts 68°
2026-04-26 16:19 41.24109 -88.88755 9467 ft 278 kts 67°
2026-04-26 16:20 41.24932 -88.86432 9337 ft 278 kts 67°
2026-04-26 16:20 41.26581 -88.81798 9042 ft 276 kts 67°
2026-04-26 16:20 41.27400 -88.79497 8905 ft 275 kts 68°
2026-04-26 16:21 41.28212 -88.77184 8754 ft 275 kts 68°
2026-04-26 16:21 41.29017 -88.74891 8610 ft 274 kts 68°
2026-04-26 16:21 41.29811 -88.72626 8455 ft 273 kts 68°
2026-04-26 16:21 41.30611 -88.70341 8329 ft 273 kts 68°
2026-04-26 16:22 41.31415 -88.68046 8188 ft 272 kts 68°
2026-04-26 16:22 41.32215 -88.65766 8075 ft 272 kts 67°
2026-04-26 16:22 41.33011 -88.63493 7923 ft 271 kts 68°
2026-04-26 16:22 41.33805 -88.61220 7785 ft 270 kts 68°
2026-04-26 16:23 41.34596 -88.58956 7657 ft 269 kts 68°
2026-04-26 16:23 41.35385 -88.56697 7536 ft 268 kts 68°
2026-04-26 16:23 41.36169 -88.54447 7404 ft 268 kts 68°
2026-04-26 16:23 41.36941 -88.52234 7255 ft 267 kts 68°
2026-04-26 16:24 41.37858 -88.50080 7110 ft 269 kts 54°
2026-04-26 16:24 41.39046 -88.48158 6979 ft 269 kts 52°
2026-04-26 16:24 41.40232 -88.46235 6872 ft 267 kts 53°
2026-04-26 16:24 41.41405 -88.44314 6771 ft 268 kts 53°
2026-04-26 16:25 41.42580 -88.42391 6658 ft 267 kts 53°
2026-04-26 16:25 41.43752 -88.40466 6553 ft 266 kts 54°
2026-04-26 16:25 41.44917 -88.38550 6452 ft 266 kts 53°
2026-04-26 16:25 41.46081 -88.36637 6388 ft 265 kts 53°
2026-04-26 16:26 41.47241 -88.34720 6228 ft 265 kts 53°
2026-04-26 16:26 41.48399 -88.32810 6126 ft 264 kts 53°
2026-04-26 16:26 41.49552 -88.30905 6041 ft 263 kts 53°
2026-04-26 16:26 41.50661 -88.28968 5993 ft 261 kts 63°
2026-04-26 16:27 41.51264 -88.26723 5992 ft 257 kts 76°
2026-04-26 16:27 41.51784 -88.24428 5951 ft 258 kts 75°
2026-04-26 16:27 41.52314 -88.22137 5971 ft 259 kts 75°
2026-04-26 16:27 41.52850 -88.19844 5972 ft 259 kts 75°
2026-04-26 16:28 41.53391 -88.17558 6009 ft 258 kts 75°
2026-04-26 16:28 41.53921 -88.15293 5995 ft 259 kts 75°
2026-04-26 16:28 41.54455 -88.13002 5983 ft 258 kts 74°
2026-04-26 16:28 41.54995 -88.10709 5956 ft 258 kts 75°
2026-04-26 16:29 41.55533 -88.08432 5986 ft 258 kts 75°
2026-04-26 16:29 41.56067 -88.06143 5975 ft 257 kts 75°
2026-04-26 16:29 41.56606 -88.03854 5995 ft 258 kts 73°
2026-04-26 16:29 41.57517 -88.01781 5765 ft 264 kts 49°
2026-04-26 16:30 41.58826 -88.00104 5586 ft 260 kts 46°
2026-04-26 16:30 41.60133 -87.98429 5234 ft 260 kts 46°
2026-04-26 16:30 41.61444 -87.96760 4933 ft 259 kts 46°
2026-04-26 16:30 41.62752 -87.95097 4565 ft 260 kts 46°
2026-04-26 16:31 41.64065 -87.93442 4224 ft 258 kts 46°
2026-04-26 16:31 41.65341 -87.91831 3993 ft 252 kts 46°
2026-04-26 16:31 41.66607 -87.90234 3645 ft 247 kts 46°
2026-04-26 16:31 41.67804 -87.88724 3322 ft 225 kts 47°
2026-04-26 16:32 41.68889 -87.87355 3032 ft 205 kts 47°
2026-04-26 16:32 41.69556 -87.86512 2848 ft 195 kts 47°
2026-04-26 16:32 41.70811 -87.84927 2513 ft 173 kts 47°
2026-04-26 16:32 41.71629 -87.83881 2421 ft 158 kts 47°
2026-04-26 16:33 41.72423 -87.82870 2390 ft 158 kts 47°
2026-04-26 16:33 41.73189 -87.81883 2102 ft 144 kts 46°
2026-04-26 16:33 41.73881 -87.80980 1812 ft 136 kts 46°
2026-04-26 16:33 41.74583 -87.80103 1652 ft 142 kts 44°
2026-04-26 16:34 41.75329 -87.79216 1471 ft 144 kts 44°
2026-04-26 16:34 41.76059 -87.78276 1280 ft 147 kts 46°
2026-04-26 16:34 41.76801 -87.77335 1059 ft 147 kts 43°
2026-04-26 16:34 41.77553 -87.76393 776 ft 148 kts 43°
2026-04-26 16:35 41.78279 -87.75478 638 ft 133 kts 44°
2026-04-26 16:35 41.78769 -87.74853 631 ft 62 kts 44°
2026-04-26 16:35 41.78935 -87.74643 633 ft 13 kts 44°
2026-04-26 16:35 41.78941 -87.74533 632 ft 15 kts 146°
2026-04-26 16:36 41.78891 -87.74544 632 ft 4 kts 218°
2026-04-26 16:36 41.78860 -87.74579 632 ft 7 kts 221°
2026-04-26 16:36 41.78816 -87.74633 632 ft 10 kts 224°
2026-04-26 16:36 41.78758 -87.74707 632 ft 13 kts 223°
2026-04-26 16:37 41.78677 -87.74783 631 ft 16 kts 189°
2026-04-26 16:37 41.78573 -87.74736 631 ft 18 kts 134°
2026-04-26 16:37 41.78509 -87.74645 631 ft 11 kts 133°
2026-04-26 16:37 41.78473 -87.74579 631 ft 9 kts 94°
2026-04-26 16:38 41.78508 -87.74509 631 ft 10 kts 42°
2026-04-26 16:38 41.78541 -87.74445 631 ft 5 kts 105°
2026-04-26 16:38 41.78521 -87.74414 631 ft 3 kts 133°
2026-04-26 16:38 41.78513 -87.74403 631 ft 0 kts 133°